YL22B EYVI-EYVI

Flight info

Callsign YL22B
Flight time 0h 4m
Altitude 2000
Route EYVI LOCAL FLIGHT
Aircraft D40/L-VGDW/C

Departure

Time 2026-04-28 16:26
Airport Vilnius International Airport (EYVI)

Arrival

Time 2026-04-28 16:30
Airport Vilnius International Airport (EYVI)
Time Latitude Longitude Altitude Speed Heading
2026-04-28 16:13 54.63771 25.28354 624 ft 0 kts 79°
2026-04-28 16:22 54.63764 25.28342 630 ft 6 kts 272°
2026-04-28 16:22 54.63743 25.28307 623 ft 1 kts 175°
2026-04-28 16:23 54.63738 25.28308 627 ft 4 kts 168°
2026-04-28 16:23 54.63633 25.28348 626 ft 21 kts 169°
2026-04-28 16:23 54.63487 25.28312 617 ft 27 kts 203°
2026-04-28 16:24 54.63299 25.28182 623 ft 32 kts 201°
2026-04-28 16:24 54.63115 25.28056 608 ft 27 kts 203°
2026-04-28 16:24 54.63000 25.28029 605 ft 11 kts 134°
2026-04-28 16:24 54.62957 25.28188 611 ft 15 kts 109°
2026-04-28 16:25 54.63012 25.28290 607 ft 21 kts 22°
2026-04-28 16:25 54.63354 25.28530 637 ft 76 kts 21°
2026-04-28 16:25 54.63861 25.28906 872 ft 81 kts 20°
2026-04-28 16:25 54.64399 25.29340 1121 ft 89 kts 18°
2026-04-28 16:26 54.64968 25.29801 1444 ft 91 kts 17°
2026-04-28 16:26 54.65467 25.30553 1672 ft 109 kts 54°
2026-04-28 16:26 54.65450 25.32040 1656 ft 138 kts 101°
2026-04-28 16:26 54.64979 25.33493 1708 ft 139 kts 129°
2026-04-28 16:27 54.64130 25.34148 1729 ft 134 kts 183°
2026-04-28 16:27 54.63275 25.33754 1729 ft 126 kts 213°
2026-04-28 16:27 54.61682 25.32569 1750 ft 123 kts 213°
2026-04-28 16:28 54.60909 25.31961 1779 ft 121 kts 215°
2026-04-28 16:28 54.60404 25.31538 1787 ft 123 kts 215°
2026-04-28 16:28 54.59746 25.30252 1781 ft 101 kts 278°
2026-04-28 16:28 54.59907 25.29134 1608 ft 93 kts 298°
2026-04-28 16:29 54.60394 25.27279 1242 ft 80 kts 315°
2026-04-28 16:29 54.61498 25.27231 835 ft 88 kts 19°
2026-04-28 16:30 54.62036 25.27611 725 ft 78 kts 20°
2026-04-28 16:30 54.62500 25.27933 625 ft 66 kts 22°
2026-04-28 16:30 54.62765 25.28121 607 ft 57 kts 22°
2026-04-28 16:30 54.63094 25.28351 608 ft 46 kts 21°
2026-04-28 16:31 54.63670 25.28756 729 ft 85 kts 21°
2026-04-28 16:31 54.64030 25.29018 963 ft 81 kts 19°
2026-04-28 16:31 54.64515 25.29446 1302 ft 80 kts 21°
2026-04-28 16:31 54.64789 25.30416 1551 ft 114 kts 84°
2026-04-28 16:32 54.64384 25.31773 1618 ft 139 kts 133°
2026-04-28 16:32 54.62540 25.31913 1747 ft 139 kts 211°
2026-04-28 16:32 54.61681 25.31206 1744 ft 134 kts 216°
2026-04-28 16:33 54.60875 25.30501 1790 ft 129 kts 216°
2026-04-28 16:33 54.60344 25.30028 1852 ft 126 kts 217°
2026-04-28 16:33 54.59406 25.28920 1833 ft 114 kts 250°
2026-04-28 16:33 54.59325 25.27722 1723 ft 98 kts 290°
2026-04-28 16:34 54.59564 25.26631 1561 ft 93 kts 314°
2026-04-28 16:34 54.60116 25.26234 1353 ft 89 kts
2026-04-28 16:34 54.60677 25.26652 1083 ft 85 kts 19°
2026-04-28 16:34 54.61179 25.27015 937 ft 74 kts 11°
2026-04-28 16:35 54.61642 25.27333 806 ft 66 kts 17°
2026-04-28 16:35 54.62040 25.27610 718 ft 58 kts 19°
2026-04-28 16:35 54.62405 25.27866 638 ft 56 kts 21°
2026-04-28 16:35 54.62772 25.28126 604 ft 54 kts 22°
2026-04-28 16:36 54.63087 25.28346 608 ft 45 kts 22°
2026-04-28 16:36 54.63398 25.28561 618 ft 69 kts 22°
2026-04-28 16:36 54.63905 25.28923 834 ft 83 kts 21°
2026-04-28 16:36 54.64422 25.29366 1138 ft 83 kts 21°
2026-04-28 16:37 54.64926 25.29856 1475 ft 84 kts 19°
2026-04-28 16:37 54.65433 25.30410 1764 ft 94 kts 32°
2026-04-28 16:37 54.65653 25.31692 1654 ft 132 kts 87°
2026-04-28 16:38 54.64828 25.34257 1829 ft 108 kts 146°
2026-04-28 16:38 54.64160 25.34454 1899 ft 89 kts 204°
2026-04-28 16:38 54.63603 25.33841 1925 ft 111 kts 228°
2026-04-28 16:38 54.62953 25.32986 1986 ft 120 kts 227°
2026-04-28 16:39 54.62261 25.32141 2047 ft 123 kts 227°
2026-04-28 16:39 54.61580 25.31221 2080 ft 126 kts 229°
2026-04-28 16:39 54.60907 25.30231 2052 ft 128 kts 230°
2026-04-28 16:39 54.60237 25.29180 2009 ft 131 kts 232°
2026-04-28 16:40 54.59561 25.28097 1900 ft 136 kts 231°
2026-04-28 16:40 54.58859 25.26984 1755 ft 138 kts 230°
2026-04-28 16:40 54.58459 25.25709 1706 ft 114 kts 281°
2026-04-28 16:40 54.58877 25.24845 1561 ft 94 kts 351°
2026-04-28 16:41 54.59447 25.25376 1342 ft 98 kts 32°
2026-04-28 16:41 54.59929 25.26084 1230 ft 88 kts 25°
2026-04-28 16:41 54.60501 25.26547 1104 ft 92 kts 14°
2026-04-28 16:41 54.61113 25.26962 966 ft 95 kts 15°
2026-04-28 16:42 54.61727 25.27392 801 ft 95 kts 19°
2026-04-28 16:42 54.62336 25.27819 654 ft 93 kts 21°
2026-04-28 16:42 54.62881 25.28200 604 ft 76 kts 22°
2026-04-28 16:42 54.63356 25.28530 652 ft 81 kts 21°
2026-04-28 16:43 54.63918 25.28916 862 ft 89 kts 20°
2026-04-28 16:43 54.64502 25.29384 1093 ft 94 kts 20°
2026-04-28 16:43 54.64877 25.30392 1323 ft 118 kts 73°
2026-04-28 16:43 54.64751 25.31896 1402 ft 134 kts 99°
2026-04-28 16:44 54.64302 25.33199 1543 ft 129 kts 147°
2026-04-28 16:44 54.63445 25.33371 1600 ft 125 kts 197°
2026-04-28 16:44 54.62602 25.32946 1580 ft 126 kts 209°
2026-04-28 16:44 54.61798 25.32349 1571 ft 124 kts 218°
2026-04-28 16:45 54.61095 25.31541 1552 ft 121 kts 229°
2026-04-28 16:45 54.60504 25.30546 1616 ft 116 kts 240°
2026-04-28 16:45 54.59991 25.29484 1663 ft 114 kts 244°
2026-04-28 16:45 54.59642 25.28344 1788 ft 100 kts 264°
2026-04-28 16:46 54.59655 25.27209 1852 ft 94 kts 290°
2026-04-28 16:46 54.59835 25.26163 1945 ft 90 kts 300°
2026-04-28 16:46 54.60103 25.25144 1941 ft 97 kts 302°
2026-04-28 16:46 54.60409 25.24093 1902 ft 101 kts 304°
2026-04-28 16:47 54.60766 25.23041 1864 ft 102 kts 306°
2026-04-28 16:47 54.61115 25.21984 1856 ft 100 kts 306°
2026-04-28 16:47 54.61453 25.20944 1879 ft 98 kts 306°
2026-04-28 16:47 54.61781 25.19923 1900 ft 99 kts 304°
2026-04-28 16:48 54.62112 25.18878 1925 ft 100 kts 304°
2026-04-28 16:48 54.62439 25.17818 1953 ft 100 kts 304°
2026-04-28 16:48 54.62765 25.16753 1977 ft 100 kts 304°
2026-04-28 16:48 54.63091 25.15685 1996 ft 100 kts 304°
2026-04-28 16:49 54.63414 25.14615 2018 ft 101 kts 304°
2026-04-28 16:49 54.63737 25.13540 2019 ft 100 kts 304°
2026-04-28 16:49 54.64055 25.12485 2019 ft 100 kts 305°
2026-04-28 16:49 54.64381 25.11412 2020 ft 101 kts 305°
2026-04-28 16:50 54.64711 25.10335 2015 ft 101 kts 304°
2026-04-28 16:50 54.65040 25.09254 2014 ft 102 kts 304°
2026-04-28 16:50 54.65365 25.08180 2017 ft 102 kts 304°
2026-04-28 16:50 54.65693 25.07097 2019 ft 101 kts 304°
2026-04-28 16:51 54.66018 25.06018 2019 ft 100 kts 304°
2026-04-28 16:51 54.66341 25.04951 2019 ft 100 kts 304°
2026-04-28 16:51 54.66665 25.03881 2015 ft 101 kts 304°
2026-04-28 16:51 54.66989 25.02810 2008 ft 100 kts 303°
2026-04-28 16:52 54.67310 25.01752 2005 ft 100 kts 303°
2026-04-28 16:52 54.67786 25.00991 2007 ft 97 kts 347°
2026-04-28 16:52 54.68478 25.00950 2011 ft 99 kts 353°
2026-04-28 16:52 54.69171 25.00890 2013 ft 100 kts 352°
2026-04-28 16:53 54.69856 25.00794 2015 ft 100 kts 351°
2026-04-28 16:53 54.70547 25.00676 2015 ft 100 kts 350°
2026-04-28 16:53 54.71236 25.00548 2015 ft 99 kts 350°
2026-04-28 16:53 54.71930 25.00414 2012 ft 100 kts 349°
2026-04-28 16:54 54.72617 25.00278 2009 ft 99 kts 349°
2026-04-28 16:54 54.73296 25.00138 2010 ft 98 kts 349°
2026-04-28 16:54 54.73974 24.99991 2008 ft 99 kts 353°
2026-04-28 16:54 54.74441 25.00057 2008 ft 100 kts
2026-04-28 16:55 54.75348 25.00340 2006 ft 99 kts
2026-04-28 16:55 54.76025 25.00597 2010 ft 100 kts
2026-04-28 16:55 54.76705 25.00879 2011 ft 101 kts
2026-04-28 16:55 54.77395 25.01163 2022 ft 102 kts
2026-04-28 16:56 54.78087 25.01276 2018 ft 100 kts 343°
2026-04-28 16:56 54.78517 25.00370 2014 ft 109 kts 284°
2026-04-28 16:56 54.78162 24.99144 2009 ft 129 kts 222°
2026-04-28 16:56 54.77309 24.98542 2003 ft 134 kts 206°
2026-04-28 16:57 54.76394 24.98231 2008 ft 138 kts 179°
2026-04-28 16:57 54.75533 24.98905 2008 ft 138 kts 142°
2026-04-28 16:57 54.74773 24.99895 2007 ft 136 kts 141°
2026-04-28 16:57 54.74008 25.00868 2006 ft 136 kts 142°
2026-04-28 16:58 54.73252 25.01804 2007 ft 136 kts 143°
2026-04-28 16:58 54.72478 25.02752 2007 ft 136 kts 144°
2026-04-28 16:58 54.71701 25.03703 2012 ft 138 kts 144°
2026-04-28 16:58 54.70919 25.04664 2013 ft 138 kts 144°
2026-04-28 16:59 54.70137 25.05625 2013 ft 137 kts 144°
2026-04-28 16:59 54.69365 25.06574 2032 ft 138 kts 143°
2026-04-28 16:59 54.68581 25.07532 2024 ft 137 kts 142°
2026-04-28 16:59 54.67801 25.08494 2027 ft 138 kts 142°
2026-04-28 17:00 54.67017 25.09464 2025 ft 139 kts 142°
2026-04-28 17:00 54.66228 25.10443 2026 ft 140 kts 142°
2026-04-28 17:00 54.65444 25.11413 2027 ft 140 kts 142°
2026-04-28 17:00 54.64650 25.12390 2029 ft 140 kts 143°
2026-04-28 17:01 54.63853 25.13370 2028 ft 140 kts 142°
2026-04-28 17:01 54.63060 25.14345 2029 ft 139 kts 142°
2026-04-28 17:01 54.62279 25.15308 2028 ft 140 kts 142°
2026-04-28 17:01 54.61480 25.16292 2029 ft 139 kts 142°
2026-04-28 17:02 54.60702 25.17248 2027 ft 139 kts 142°
2026-04-28 17:02 54.60144 25.17818 2042 ft 137 kts 157°
2026-04-28 17:02 54.58948 25.17713 2053 ft 129 kts 211°
2026-04-28 17:02 54.58335 25.16692 1977 ft 121 kts 254°
2026-04-28 17:03 54.58062 25.14113 2087 ft 101 kts 280°
2026-04-28 17:03 54.58105 25.12889 2036 ft 106 kts 286°
2026-04-28 17:03 54.58552 25.12105 2035 ft 99 kts 351°
2026-04-28 17:04 54.59167 25.14124 1801 ft 136 kts 110°
2026-04-28 17:04 54.58702 25.15569 1685 ft 138 kts 114°
2026-04-28 17:05 54.57762 25.18350 1731 ft 131 kts 116°
2026-04-28 17:05 54.57335 25.19782 1731 ft 136 kts 103°
2026-04-28 17:05 54.57200 25.21400 1702 ft 135 kts 83°
2026-04-28 17:06 54.57919 25.24234 1462 ft 129 kts 40°
2026-04-28 17:06 54.58557 25.25252 1293 ft 120 kts 22°
2026-04-28 17:06 54.59831 25.26142 1102 ft 87 kts
2026-04-28 17:07 54.60397 25.26503 1020 ft 87 kts 14°
2026-04-28 17:07 54.60963 25.26888 906 ft 87 kts 15°
2026-04-28 17:07 54.61512 25.27260 802 ft 86 kts 17°
2026-04-28 17:07 54.62067 25.27636 701 ft 84 kts 19°
2026-04-28 17:08 54.62596 25.28003 603 ft 77 kts 21°
2026-04-28 17:08 54.63041 25.28314 607 ft 63 kts 22°
2026-04-28 17:08 54.63545 25.28665 760 ft 86 kts 21°
2026-04-28 17:08 54.64108 25.29107 1021 ft 92 kts 19°
2026-04-28 17:09 54.64636 25.29765 1284 ft 104 kts 49°
2026-04-28 17:09 54.64641 25.31155 1366 ft 133 kts 110°
2026-04-28 17:09 54.64063 25.32427 1381 ft 135 kts 145°
2026-04-28 17:09 54.63190 25.32642 1492 ft 128 kts 201°
2026-04-28 17:10 54.62370 25.32073 1565 ft 128 kts 214°
2026-04-28 17:10 54.61557 25.31382 1588 ft 132 kts 217°
2026-04-28 17:10 54.60725 25.30653 1622 ft 135 kts 216°
2026-04-28 17:10 54.59887 25.29908 1640 ft 134 kts 217°
2026-04-28 17:11 54.59239 25.28942 1745 ft 113 kts 257°
2026-04-28 17:11 54.59276 25.27674 1624 ft 111 kts 298°
2026-04-28 17:11 54.59636 25.26514 1392 ft 106 kts 307°
2026-04-28 17:11 54.60209 25.26039 1273 ft 104 kts
2026-04-28 17:12 54.60807 25.26676 988 ft 93 kts 23°
2026-04-28 17:12 54.61336 25.27137 842 ft 79 kts 15°
2026-04-28 17:12 54.61849 25.27488 734 ft 80 kts 19°
2026-04-28 17:12 54.62347 25.27830 635 ft 74 kts 21°
2026-04-28 17:13 54.62782 25.28133 603 ft 60 kts 21°
2026-04-28 17:13 54.63150 25.28386 610 ft 64 kts 21°
2026-04-28 17:13 54.63670 25.28750 800 ft 86 kts 21°
2026-04-28 17:13 54.64221 25.29213 1094 ft 88 kts 19°
2026-04-28 17:14 54.64703 25.29837 1447 ft 95 kts 49°
2026-04-28 17:14 54.64649 25.31149 1554 ft 127 kts 108°
2026-04-28 17:14 54.64325 25.32628 1598 ft 137 kts 101°
2026-04-28 17:14 54.64045 25.34263 1578 ft 146 kts 101°
2026-04-28 17:15 54.63734 25.35953 1519 ft 149 kts 102°
2026-04-28 17:15 54.63517 25.37049 1523 ft 138 kts 103°
2026-04-28 17:15 54.63122 25.38968 1588 ft 119 kts 101°
2026-04-28 17:15 54.62837 25.40246 1645 ft 110 kts 104°
2026-04-28 17:16 54.62465 25.40808 1668 ft 116 kts 170°
2026-04-28 17:16 54.61648 25.40500 1615 ft 128 kts 209°
2026-04-28 17:16 54.60863 25.39767 1658 ft 129 kts 225°
2026-04-28 17:16 54.60248 25.38688 1652 ft 123 kts 240°
2026-04-28 17:17 54.59779 25.37487 1627 ft 118 kts 249°
2026-04-28 17:17 54.59418 25.36271 1716 ft 109 kts 256°
2026-04-28 17:17 54.59111 25.35064 1692 ft 113 kts 257°
2026-04-28 17:17 54.58796 25.33806 1651 ft 114 kts 258°
2026-04-28 17:18 54.58514 25.32559 1689 ft 109 kts 262°
2026-04-28 17:18 54.58305 25.31327 1729 ft 106 kts 271°
2026-04-28 17:18 54.58395 25.30104 1696 ft 105 kts 300°
2026-04-28 17:18 54.58741 25.28977 1488 ft 109 kts 305°
2026-04-28 17:19 54.59161 25.27871 1341 ft 111 kts 307°
2026-04-28 17:19 54.59707 25.27007 1306 ft 107 kts 339°
2026-04-28 17:19 54.60442 25.26787 1194 ft 101 kts 352°
2026-04-28 17:19 54.61045 25.27092 1067 ft 96 kts 36°
2026-04-28 17:20 54.61207 25.28306 1116 ft 117 kts 95°
2026-04-28 17:20 54.60899 25.29082 1213 ft 121 kts 143°
2026-04-28 17:20 54.59929 25.28922 1256 ft 110 kts 239°
2026-04-28 17:20 54.59972 25.27820 1148 ft 94 kts 321°
2026-04-28 17:21 54.60543 25.27440 1068 ft 84 kts 341°
2026-04-28 17:21 54.61096 25.27247 961 ft 77 kts 347°
2026-04-28 17:21 54.61613 25.27316 835 ft 77 kts 14°
2026-04-28 17:22 54.62580 25.27993 616 ft 67 kts 21°
2026-04-28 17:22 54.62977 25.28268 606 ft 56 kts 20°
2026-04-28 17:22 54.63294 25.28487 614 ft 35 kts 21°
2026-04-28 17:23 54.63506 25.28399 624 ft 6 kts 347°
2026-04-28 17:23 54.63511 25.28397 622 ft 1 kts 347°
2026-04-28 17:23 54.63531 25.28388 619 ft 5 kts 341°
2026-04-28 17:23 54.63470 25.28298 617 ft 18 kts 199°
2026-04-28 17:24 54.63421 25.28246 620 ft 9 kts 160°
2026-04-28 17:24 54.63358 25.28182 614 ft 11 kts 280°
2026-04-28 17:24 54.63354 25.28118 613 ft 1 kts 291°
2026-04-28 17:24 54.63355 25.28116 613 ft 0 kts 291°